Weather History for Greenwood, MS

Change the Weather History Date:

Monday, July 15, 2013

  Actual Average Record
Temperature  
Mean Temperature 81 °F 81 °F  
Max Temperature 92 °F 92 °F 104 °F (1980)
Min Temperature 70 °F 71 °F 53 °F (1967)
Degree Days  
Heating Degree Days 0 0  
Month to date heating degree days 0 0  
Since 1 June heating degree days 0 0  
Since 1 July heating degree days 0 0  
Cooling Degree Days 16 16  
Month to date cooling degree days 204 240  
Year to date cooling degree days 899 983  
Since 1 June cooling degree days 623 653  
Growing Degree Days 31 (Base 50)    
Moisture  
Dew Point 71 °F    
Average Humidity 70    
Maximum Humidity 93    
Minimum Humidity 47    
Precipitation  
Precipitation 0.00 in 0.12 in 3.59 in (1950)
Month to date precipitation 0.10 1.91  
Year to date precipitation 33.55 29.55  
Sea Level Pressure  
Sea Level Pressure 30.11 in    
Wind  
Wind Speed 6 mph (SE)    
Max Wind Speed 12 mph    
Max Gust Speed 15 mph    
Visibility 10 miles    
Events      
T = Trace of Precipitation, MM = Missing Value Source: NWS Daily Summary

Daily Weather History Graph

Daily Weather History Graph

Search for Another Location

Airport:

Trip Planner

Search our weather history database for the weather conditions in past years. The results will help you decide how hot, cold, wet, or windy it might be!

Date:

Astronomy

Jul. 15, 2013 Rise Set
Actual Time 6:01 AM CDT 8:10 PM CDT
Civil Twilight 5:33 AM CDT 8:39 PM CDT
Nautical Twilight 4:58 AM CDT 9:13 PM CDT
Astronomical Twilight 4:21 AM CDT 9:50 PM CDT
Moon 12:56 PM CDT (7/15) No Moon Set
Length of Visible Light 15h 05m
Length of Day
14h 09m
Waxing Crescent, 45% of the Moon is Illuminated
Jul 15
Waxing Crescent
Jul 15
First Quarter
Jul 22
Full
Jul 29
Last Quarter
Aug 6
New

Hourly Weather History & Observations

Time (CDT) Temp. Heat Index Dew Point Humidity Pressure Visibility Wind Dir Wind Speed Gust Speed Precip Events Conditions
12:53 AM 71.1 °F - 69.1 °F 93% 30.05 in 10.0 mi Calm Calm - N/A   Clear
1:53 AM 71.1 °F - 69.1 °F 93% 30.04 in 9.0 mi Calm Calm - N/A   Clear
2:53 AM 71.1 °F - 69.1 °F 93% 30.04 in 9.0 mi Calm Calm - N/A   Clear
3:53 AM 71.1 °F - 69.1 °F 93% 30.05 in 7.0 mi NNW 3.5 mph - N/A   Clear
4:53 AM 73.9 °F - 71.1 °F 91% 30.06 in 10.0 mi East 9.2 mph - N/A   Overcast
5:53 AM 73.9 °F - 71.1 °F 91% 30.07 in 10.0 mi East 6.9 mph - N/A   Scattered Clouds
6:53 AM 73.9 °F - 71.1 °F 91% 30.10 in 10.0 mi East 8.1 mph - N/A   Overcast
7:53 AM 77.0 °F - 72.0 °F 84% 30.12 in 10.0 mi ESE 5.8 mph - N/A   Overcast
8:53 AM 79.0 °F - 72.0 °F 79% 30.14 in 10.0 mi Variable 5.8 mph - N/A   Overcast
9:24 AM 80.6 °F 85.4 °F 73.4 °F 79% 30.14 in 10.0 mi SSE 9.2 mph - N/A   Mostly Cloudy
9:35 AM 80.6 °F 85.4 °F 73.4 °F 79% 30.14 in 10.0 mi SSE 8.1 mph - N/A   Scattered Clouds
9:53 AM 81.0 °F 85.2 °F 72.0 °F 74% 30.14 in 10.0 mi SE 5.8 mph - N/A   Mostly Cloudy
10:29 AM 84.2 °F 90.9 °F 73.4 °F 70% 30.15 in 10.0 mi ESE 6.9 mph - N/A   Scattered Clouds
10:53 AM 84.9 °F 91.4 °F 73.0 °F 67% 30.15 in 10.0 mi SE 8.1 mph - N/A   Scattered Clouds
11:53 AM 86.0 °F 93.0 °F 73.0 °F 65% 30.14 in 10.0 mi SE 5.8 mph - N/A   Mostly Cloudy
12:53 PM 88.0 °F 93.8 °F 71.1 °F 57% 30.13 in 10.0 mi South 8.1 mph - N/A   Partly Cloudy
1:53 PM 89.1 °F 96.0 °F 72.0 °F 57% 30.12 in 10.0 mi SE 10.4 mph - N/A   Scattered Clouds
2:53 PM 90.0 °F 94.5 °F 69.1 °F 50% 30.09 in 10.0 mi SSE 9.2 mph - N/A   Clear
3:53 PM 91.0 °F 95.2 °F 68.0 °F 47% 30.08 in 10.0 mi SE 4.6 mph - N/A   Partly Cloudy
4:53 PM 91.0 °F 95.6 °F 69.1 °F 48% 30.07 in 10.0 mi ESE 4.6 mph - N/A   Clear
5:53 PM 90.0 °F 95.4 °F 70.0 °F 52% 30.08 in 10.0 mi ESE 8.1 mph - N/A   Clear
6:53 PM 87.1 °F 92.8 °F 71.1 °F 59% 30.09 in 10.0 mi SSE 6.9 mph - N/A   Clear
7:53 PM 82.9 °F 88.0 °F 72.0 °F 69% 30.11 in 10.0 mi SSE 4.6 mph - N/A   Clear
8:53 PM 82.0 °F 86.7 °F 72.0 °F 71% 30.14 in 10.0 mi ESE 4.6 mph - N/A   Mostly Cloudy
9:53 PM 81.0 °F 85.8 °F 73.0 °F 77% 30.16 in 10.0 mi East 6.9 mph - N/A   Clear
10:53 PM 80.1 °F 83.8 °F 72.0 °F 76% 30.15 in 10.0 mi ESE 3.5 mph - N/A   Clear
11:53 PM 78.1 °F - 72.0 °F 81% 30.15 in 10.0 mi East 3.5 mph - N/A   Clear